Regional Weather Roundup
Issued by NWS Green Bay, WI

Home | Current Version | Previous Version | Text Only | Print | Product List | Glossary On
Versions: 1 2 3 4 5 6 7 8 9 10 11 12 13 14 15 16 17 18 19 20 21 22 23 24 25 26 27 28 29 30 31 32 33 34 35 36 37 38 39 40 41 42 43 44 45 46 47 48 49 50
000
ASUS43 KGRB 191911
RWRGRB

NORTH-CENTRAL AND NORTHEAST WISCONSIN REGIONAL WEATHER ROUNDUP
NATIONAL WEATHER SERVICE GREEN BAY WI
100 PM CST FRI JAN 19 2018

WIZ005-009-010>012-018-019-192000-
NORTH CENTRAL WISCONSIN

CITY           SKY/WX    TMP DP  RH WIND       PRES   REMARKS
IRONWOOD       CLOUDY    40  24  53 S7        29.43F
MANITOWISH WTR PTSUNNY   34  24  67 S8        29.46F
ARBOR VITAE    FAIR      37  29  74 S9        29.47F
EAGLE RIVER    FAIR      35  24  64 SW7       29.48F
LAND O LAKES   PTSUNNY   35  26  68 SW5       29.48F
RHINELANDER    FAIR      34  25  69 SW8       29.51F
PHILLIPS       FAIR      34  24  67 S6        29.49F
ANTIGO         FAIR      33  25  72 SW9       29.55F
TOMAHAWK       FAIR      34  24  68 CALM      29.52F
MERRILL        FAIR      33  24  71 SW7       29.56F
$$

WIZ013-073-192000-
NORTHEAST WISCONSIN

CITY           SKY/WX    TMP DP  RH WIND       PRES   REMARKS
IRON MOUNTAIN  FAIR      33  25  72 S7        29.50F
MARINETTE      FAIR      33  24  69 SW9       29.60F
OCONTO         FAIR      34  25  67 SW8       29.60F
$$

WIZ017-030-035>037-045-192000-
CENTRAL WISCONSIN

CITY           SKY/WX    TMP DP  RH WIND       PRES   REMARKS
MEDFORD        FAIR      31  24  75 S9        29.52F
WAUSAU         FAIR      35  25  66 S6        29.56F
MOSINEE        CLOUDY    34  27  75 S9        29.59F
MARSHFIELD     FAIR      36  26  67 SW9       29.56F
WISC RAPIDS    FAIR      36  23  59 SW9       29.61F
STEVENS POINT  FAIR      35  24  65 SW9       29.60F
WAUPACA        FAIR      39  26  57 S7        29.63F
SHAWANO        FAIR      37  26  62 SW7       29.61F
CLINTONVILLE   FAIR      36  25  64 SW12      29.61F
WAUTOMA        FAIR      38  24  57 SW12      29.64F
$$

WIZ038-039-048-051-192000-
FOX VALLEY

CITY           SKY/WX    TMP DP  RH WIND       PRES   REMARKS
NWS GREEN BAY  FAIR      34  25  69 SW13      29.63F
APPLETON       PTSUNNY   34  21  60 SW14      29.62F
OSHKOSH        FAIR      35  26  69 S14       29.65F
FOND DU LAC    FAIR      36  23  59 SW15G25   29.65F
$$

WIZ022-050-052-192000-
EAST CENTRAL WISCONSIN

CITY           SKY/WX    TMP DP  RH WIND       PRES   REMARKS
EPHRAIM        FAIR      33  24  67 S8        29.58F
WASHINGTON ISL CLOUDY    31  26  80 S15       29.58F
STURGEON BAY   FAIR      35  25  66 SW16      29.61F
MANITOWOC      FAIR      37  25  61 S9        29.65F
SHEBOYGAN      FAIR      38  27  64 S13       29.65F
$$

LMZ563-521-522-541>543-192000-
LAKESHORE

STATION/POSITION TIME  TEMP    WIND        PRES    VSBY  WAVE
                       AIR SEA DIR/SP/G                  HT/PER
                 (UTC) (F)     (DEG/KT/KT) (MB)    (MI)  (FT/S)
SHEBOYGAN LKSHOR 1900   35     180/ 14/ 15 1004.8F
KEWAUNEE LKSHORE 1842   33     180/ 10/ 12 1003.0F
NORTHPORT PIER   1840   33     170/ 12/ 26 1002.4F
MENOMINEE LKSHOR 1836   31     210/ 11/ 16 1002.1F
$$




USA.gov is the U.S. government's official web portal to all federal, state and local government web resources and services.